CAPE
1704 1292 925 751 1137 856 475 630 94 186 46 0 27 197 254 411 369 684 596 405 232 61 31 18 0 0 0 0 0 8 0 0
1236 1457 1022 921 789 664 500 456 355 116 152 83 20 154 170 249 275 332 364 239 102 26 0 0 0 0 0 0 0 6 0 0
719 626 1240 1005 907 373 307 498 366 272 229 98 28 41 89 174 145 188 187 77 32 9 0 0 0 0 0 0 0 0 0 0
569 552 872 932 845 335 291 362 290 108 59 20 18 18 43 137 124 141 123 43 14 8 0 0 0 0 0 0 0 5 0 0
321 93 111 630 710 457 388 343 116 92 43 36 13 54 100 101 144 72 24 12 3 0 0 0 0 0 0 0 0 4 0 0
160 0 1 1 122 201 240 215 154 75 67 55 17 97 106 108 74 15 0 0 0 0 0 0 0 0 0 0 12 1 0 0
0 1 0 5 2 51 3 110 298 85 75 56 17 60 66 86 73 1 0 0 0 0 0 0 0 0 0 0 6 2 0 0
0 7 1 0 1 0 43 31 135 127 34 24 9 31 39 47 37 5 0 0 0 0 0 0 0 0 0 0 9 2 0 0
0 2 3 10 0 2 0 56 30 29 68 21 17 8 40 19 13 12 11 22 0 27 0 0 0 0 0 0 0 8 0 0
0 2 0 15 6 17 23 15 19 1 0 8 1 1 0 20 14 68 34 53 46 26 5 0 0 0 0 0 0 4 2 0
0 1 1 8 15 8 2 1 0 2 1 0 0 0 0 25 27 72 108 102 59 41 14 7 0 0 0 0 0 0 0 0
0 0 12 17 4 2 3 2 2 1 1 1 0 0 0 0 0 3 19 34 45 20 19 40 6 2 0 0 1 0 0 0
0 2 15 9 5 3 2 3 3 4 3 0 0 0 0 0 0 0 0 5 8 21 52 57 0 0 0 0 0 0 0 0
0 8 15 14 6 2 1 1 0 0 0 5 0 0 0 0 0 0 0 0 2 28 6 0 0 0 0 1 0 0 0 0
0 2 14 15 8 3 6 2 2 1 3 4 2 0 0 0 0 0 4 0 1 0 0 0 0 0 3 24 41 10 0 0
0 9 13 11 5 2 0 0 0 1 0 0 3 0 0 0 0 17 0 0 19 2 39 5 23 0 0 1 9 50 54 19
0 8 12 15 3 3 0 0 1 2 3 0 0 0 0 28 85 71 47 18 30 29 85 165 91 87 4 7 0 8 34 46
1 6 11 18 12 0 0 0 0 6 0 0 0 0 30 28 38 34 39 44 69 123 103 160 82 70 132 143 85 51 26 18
3 7 9 8 17 12 0 0 0 0 0 0 0 2 44 70 49 19 45 80 75 175 160 95 110 156 179 124 115 98 97 40
0 6 5 12 13 20 5 0 0 0 0 0 0 0 0 17 26 46 36 74 116 151 180 203 199 166 181 203 146 147 93 82
CIN
-63 -74 -138 -139 -58 -80 -129 -60 -169 -101 -138 0 -111 0 -3 -2 -7 -3 0 -10 -11 -37 -67 -150 0 0 0 0 0 -121 0 0
-81 -48 -77 -69 -91 -75 -49 -69 -96 -165 -98 -97 -91 0 -12 -6 -12 -6 0 -7 -43 -77 0 0 0 0 0 0 0 -136 0 0
-147 -108 -33 -28 -16 -92 -69 -18 -24 -15 0 -9 -24 -7 -7 -4 -15 -16 -1 -61 -59 -100 0 0 0 0 0 0 0 -8 0 0
-144 -120 -39 -24 -1 -31 -23 -12 -16 -37 -45 -55 -27 -21 -1 -1 -14 -22 -51 -66 -58 0 0 0 0 0 0 0 0 -31 0 0
-162 -231 -197 -39 -10 -5 -13 -11 -50 -37 -30 -47 -18 -25 -6 -8 -1 -5 -94 -82 0 0 0 0 0 0 0 0 -29 -36 0 0
-189 0 0 0 -70 -3 -6 -20 -17 -6 -1 -22 -20 -2 0 0 -27 -59 0 0 0 0 0 0 0 0 0 0 -21 -7 0 0
0 -1 0 0 -5 -56 -18 -17 -2 -10 0 0 -18 -11 0 -3 -19 -50 0 0 0 0 0 0 0 0 0 0 -25 -65 0 0
0 -2 -4 0 0 0 -10 -7 -8 0 -6 -14 -18 -15 -9 -5 -22 -127 -18 0 0 0 0 0 0 0 0 0 -16 -20 0 0
0 -8 -1 0 -5 0 -2 -3 -3 -9 -7 -40 -14 -7 0 -5 -55 -88 -121 -69 0 -34 -9 0 0 0 0 0 -1 -12 0 0
0 -1 0 0 -1 0 -17 -26 -5 0 0 -3 0 -23 0 -12 -37 -34 -103 -48 -31 -52 -111 0 0 0 0 0 0 -14 -15 0
0 -2 -1 0 0 -1 0 0 0 0 0 0 0 0 0 -10 -40 -56 -39 -32 -58 -66 -83 -94 0 0 0 0 0 0 0 0
0 -2 0 0 0 0 0 0 0 0 0 0 -1 0 0 0 0 -32 -88 -59 -67 -76 -73 -52 -92 -84 0 0 -7 0 0 0
0 0 -5 -2 0 0 0 0 0 0 0 0 0 0 0 0 0 0 -84 -128 -99 -78 -61 -33 0 0 0 0 0 0 0 0
0 -1 -1 0 -2 -1 -2 -1 -1 0 0 -1 -7 0 0 0 0 0 0 0 -18 -90 -71 0 0 0 -2 -82 0 0 0 0
0 -1 0 0 0 -1 -2 -6 -2 -2 0 -1 -1 0 0 0 0 -17 -65 0 -52 -18 0 0 0 -27 -44 -25 -7 -6 0 0
0 0 0 0 0 -1 0 0 0 -1 0 0 -1 0 0 0 -9 -23 -10 -14 -69 -23 -41 -62 -66 0 0 -27 -81 -38 -16 -26
0 -1 -1 0 0 -1 0 0 -1 -2 -3 -1 0 0 0 -10 -9 -23 -44 -47 -47 -49 -34 -25 -51 -51 -73 -78 -3 -65 -55 -23
-11 -2 -1 0 0 0 0 0 0 -2 0 0 0 0 -23 -51 -39 -38 -55 -47 -30 -36 -47 -35 -22 -20 -15 -18 -40 -49 -57 -55
-3 -1 0 0 0 0 0 0 0 0 0 0 0 -6 -28 -37 -54 -62 -16 -17 -19 -22 -48 -39 -23 -34 -41 -47 -46 -39 -33 -27
-1 0 0 0 -1 0 -1 0 0 0 0 0 0 0 -4 -59 -49 -51 -40 -17 -22 -26 -14 -19 -18 -54 -49 -49 -60 -53 -53 -46
Wind_Speed
6 5 8 8 8 11 11 11 15 20 21 23 21 20 18 20 17 19 21 23 21 19 15 14 15 10 10 4 4 8 13 12
3 6 6 7 6 8 9 14 13 14 18 24 20 19 24 22 18 21 21 23 21 20 15 13 13 11 8 1 3 4 14 12
3 4 9 5 9 6 8 12 13 14 13 13 7 6 13 20 19 22 21 24 20 19 16 13 11 10 7 1 7 5 10 10
4 1 3 6 6 7 7 6 5 5 7 8 3 4 12 14 17 20 23 22 20 18 17 14 9 3 2 1 2 7 11 11
5 4 2 1 4 5 2 3 3 5 10 11 5 7 10 9 9 9 10 17 9 11 11 7 7 4 3 3 5 10 9 9
7 4 4 3 3 2 4 4 5 7 7 13 9 6 9 8 8 9 10 7 10 9 7 8 6 6 5 5 2 10 9 8
4 6 5 4 3 3 1 4 6 8 9 11 9 8 9 9 9 9 9 9 9 8 6 8 7 6 4 4 3 14 14 8
8 6 6 5 4 4 2 3 4 8 10 11 13 10 8 8 9 10 10 8 8 7 8 7 7 5 6 4 4 10 13 12
9 8 5 7 5 4 3 3 5 7 8 13 13 14 14 13 11 10 10 7 8 4 6 4 5 5 5 4 5 6 11 13
9 6 7 4 6 4 3 4 4 6 6 9 16 15 18 13 10 8 10 8 5 5 5 4 5 5 4 4 4 3 7 13
11 7 8 5 6 5 5 6 4 6 8 7 12 16 13 10 8 7 7 6 5 6 3 4 4 5 5 4 4 4 5 8
11 6 8 7 7 6 6 6 6 5 6 10 11 14 15 10 9 9 5 6 5 5 4 2 4 5 7 4 4 5 5 4
11 10 8 8 8 7 7 6 7 7 6 12 12 11 12 11 8 8 4 5 6 6 4 5 3 5 4 4 1 3 6 5
12 10 10 9 7 6 6 9 7 9 8 9 10 9 8 9 8 7 6 4 5 5 5 3 3 3 4 4 3 1 3 4
13 11 12 10 10 8 8 8 7 8 9 11 11 11 7 8 8 7 6 6 6 5 5 6 4 2 4 4 4 4 4 3
14 13 13 13 14 12 16 12 13 8 9 10 11 13 13 13 15 14 14 9 7 8 7 6 5 6 2 2 3 2 3 2
14 14 13 15 15 14 12 11 8 8 6 7 10 10 13 9 12 12 9 8 8 7 6 6 4 4 5 3 3 3 4 3
14 14 13 15 15 16 16 15 13 10 10 9 8 10 9 7 7 6 8 10 12 10 9 6 9 7 4 3 4 4 4 4
14 17 15 16 16 16 17 17 16 15 15 12 14 11 7 7 6 6 8 12 13 9 7 9 8 4 6 4 3 4 3 3
18 18 17 17 16 17 17 17 11 12 15 11 10 10 10 9 8 8 12 13 8 7 5 5 6 6 7 6 5 4 4 4
Wind_Direction
148 185 135 119 151 152 162 161 166 179 167 167 211 213 173 158 164 142 131 126 126 128 125 123 117 114 104 46 32 14 107 105
223 159 152 143 142 155 171 166 164 170 170 182 195 217 178 174 152 138 134 127 126 128 127 124 119 111 100 158 20 342 105 108
198 207 152 169 143 134 139 184 178 179 185 174 146 237 215 179 159 144 138 121 126 129 125 115 110 113 153 42 346 121 102 102
150 314 169 159 158 154 145 150 149 155 125 121 150 261 143 173 150 135 128 122 127 126 122 123 131 140 139 16 282 103 102 106
147 166 266 286 187 164 172 165 148 139 156 131 173 158 172 161 138 135 121 123 125 124 135 150 145 148 148 211 247 105 108 112
127 130 168 136 89 152 167 161 153 143 153 144 166 138 159 152 139 137 131 137 141 145 167 135 153 163 174 199 139 107 114 119
149 148 166 150 139 151 185 200 177 166 156 158 160 158 159 149 140 146 139 140 148 164 169 148 162 162 187 135 222 118 124 125
145 154 154 168 179 167 181 190 179 166 164 163 166 164 166 153 148 148 140 155 167 170 148 154 147 165 126 192 130 124 126 131
157 141 177 173 165 177 178 192 141 150 165 172 173 178 167 158 154 153 138 152 165 149 130 131 123 134 162 169 112 122 139 136
144 143 173 131 130 161 157 145 150 143 147 170 163 158 150 160 144 144 150 142 143 125 124 132 141 134 138 158 142 140 130 147
132 169 160 136 120 106 112 118 120 147 140 136 152 134 128 145 138 117 131 130 114 127 120 128 132 124 148 170 154 146 149 162
129 158 141 125 112 107 100 100 94 106 130 130 137 119 116 116 106 92 89 117 109 109 143 122 151 154 164 165 164 153 166 174
136 160 148 139 135 129 120 118 110 101 95 123 135 103 97 95 109 109 108 116 124 145 160 154 168 187 111 134 191 170 172 176
148 163 160 148 140 139 126 126 118 115 113 98 99 86 93 109 128 140 127 118 141 174 164 139 171 182 149 134 155 275 267 217
156 172 165 144 137 126 121 113 112 126 139 136 147 148 146 141 151 161 150 165 195 170 165 167 154 196 211 165 169 202 150 204
160 170 160 151 150 150 153 152 147 147 147 163 167 165 164 176 170 184 179 192 170 181 183 185 153 172 257 226 270 133 151 189
161 170 165 153 162 163 158 153 141 149 160 164 159 164 169 173 182 168 158 163 173 179 187 184 180 152 191 170 205 210 205 179
158 170 170 157 165 168 171 166 154 158 170 175 171 168 183 185 172 159 170 182 190 190 193 178 214 189 203 199 182 166 198 189
169 171 175 170 170 169 177 178 169 171 176 179 179 179 181 185 174 181 198 204 199 175 172 199 209 200 192 212 219 221 211 200
180 177 176 173 172 178 180 182 179 181 183 181 186 191 187 189 189 191 216 208 189 177 173 178 189 197 212 209 218 218 214 216